COSMOS 1275 DEB, 12964

Orbit data source: Space-Track

COSMOS 1275 DEB, 12964 is space debris in LEO originally from a launch on Thu, 04 Jun 1981 UTC launched from the Plesetsk Missile And Space Complex (PKMTR). Debris objects in space refer to the collection of defunct objects orbiting the Earth. Examples of debris include non-operational satellites, rocket bodies, and fragments generated from explosions, collisions, or faulty payload assembly.

Loading next visibility...
Identifier
12964, 1981-053EK
Orbit
LEO
Country
Flag of CISCIS
Related business
Manufacturer
Unknown
Mission
Spacecraft
Bus & Motor
Unknown
Mass
Unknown
Launch date (UTC)
1981-06-04 (45 years ago)
Launch vehicle
Unknown
Launch site
Plesetsk Missile And Space Complex (PKMTR)
Object type
Payload
Rocket body
Debris
Shape & HBR
Unknown shape, 0.1 m
Radar Cross Section
Small (<0.1 m²)

Expand to show TLE details & history
Last TLE update: 1 day ago

TLE from 1 day ago
0 COSMOS 1275 DEB
1 12964U 81053EK  26103.94914770  .00000038  00000-0  21570-4 0  9992
2 12964  82.9473 164.0101 0037729 317.6636 221.5461 13.80311852239951
Epoch: 2026-04-13T22:46Z
TLE epoch observation values (Epoch: 2026-04-13T22:46:46.361Z)
Latitude
0.95878°
Longitude
160.0665°
Altitude
986.347 km
Speed
7.348 km/s
True Right ascension
22h 55m 34s
True Declination
0° 57' 12"
Sunlit
Object was in daylight at epoch
Visualization orbit readout
Latitude
Unknown
Longitude
Unknown
Altitude
Unknown
Speed
Unknown
Apparent Right ascension
Unknown
Apparent Declination
Unknown
Sunlit
N/A
Visualization observer readout
Local Sidereal Time
06:04:21
Azimuth
Unknown
Elevation
Unknown
Doppler factor
Unknown
Orbital elements
Apogee altitude
987.608 km
Perigee altitude
932.236 km
Semi-major axis
7,338.059 km
Eccentricity
0.00377
Inclination
82.9473°
RAAN
164.0101°
Arg. of periapsis
317.6636°
True anomaly
221.26037°
Mean anomaly
221.5461°
Eccentric anomaly
221.40313°
Mean motion
3.4528 °/min
Orbital period
104.26 mins
BSTAR
0.00002157
Loading maneuver chart data...
Computing Atmospheric mass density...
Loading historical data...
Loading historical data...
Loading historical data...
Loading historical data...
Loading historical data...
Loading historical data...
Loading historical data...

Documentation

Showing up to 5 results
|